This is the latest recevied weather packets stored in our database for station/object KD8OZS. If no packets are shown the sender has not sent any weather packets the latest 10 day(s).
| Time | Temp. | Humidity | Pressure | Rain* | Wind** | Luminosity | Snow |
|---|---|---|---|---|---|---|---|
| 1777385668 | 15° C | 89% | 1005 hPa | 0 mm | - | 110 W/m² | - |
| 1777385366 | 15° C | 89% | 1005 hPa | 0 mm | - | 93 W/m² | - |
| 1777385062 | 15° C | 88% | 1004.9 hPa | 0 mm | - | 93 W/m² | - |
| 1777384759 | 15° C | 87% | 1005 hPa | 0 mm | - | 111 W/m² | - |
| 1777384454 | 15° C | 87% | 1004.7 hPa | 0 mm | - | 100 W/m² | - |
| 1777384150 | 15° C | 88% | 1004.8 hPa | 0 mm | - | 153 W/m² | - |
| 1777383846 | 15° C | 88% | 1004.7 hPa | 0 mm | - | 157 W/m² | - |
| 1777383542 | 15° C | 88% | 1005 hPa | 0 mm | - | 166 W/m² | - |
| 1777383239 | 14.44° C | 88% | 1005 hPa | 0 mm | - | 144 W/m² | - |
| 1777382935 | 14.44° C | 88% | 1004.9 hPa | 0 mm | - | 132 W/m² | - |
| 1777382630 | 14.44° C | 88% | 1004.8 hPa | 0 mm | - | 145 W/m² | - |
| 1777382327 | 13.89° C | 88% | 1004.7 hPa | 0 mm | - | 119 W/m² | - |
| 1777382023 | 13.89° C | 88% | 1004.6 hPa | 0 mm | - | 93 W/m² | - |
| 1777381718 | 13.89° C | 89% | 1004.7 hPa | 0 mm | - | 73 W/m² | - |
| 1777381413 | 13.89° C | 89% | 1004.7 hPa | 0 mm | - | 57 W/m² | - |
| 1777381110 | 13.89° C | 89% | 1004.7 hPa | 0 mm | - | 85 W/m² | - |
| 1777380807 | 13.89° C | 89% | 1004.7 hPa | 0 mm | - | 72 W/m² | - |
| 1777380504 | 13.33° C | 89% | 1004.7 hPa | 0 mm | - | 52 W/m² | - |
| 1777380201 | 13.33° C | 89% | 1004.7 hPa | 0 mm | - | 61 W/m² | - |
| 1777379896 | 13.33° C | 89% | 1004.5 hPa | 0 mm | - | 53 W/m² | - |
| 1777379592 | 13.33° C | 89% | 1004.6 hPa | 0 mm | - | 48 W/m² | - |
| 1777379288 | 13.33° C | 89% | 1004.5 hPa | 0 mm | - | 44 W/m² | - |
| 1777378982 | 13.33° C | 89% | 1004.6 hPa | 0 mm | - | 56 W/m² | - |
| 1777378678 | 13.33° C | 89% | 1004.5 hPa | 0 mm | - | 53 W/m² | - |
| 1777378375 | 13.33° C | 89% | 1004.3 hPa | 0 mm | - | 44 W/m² | - |
* Rain latest hour (hover to see other rain measurements)
** Current wind speed in m/s (hover to see current wind gust speed)